Location: Brachstadt
(48.6975°N, 10.6755°E)
Time: 03:12:16
(UTC+00:00)

Cosmos 2034 Rocket - Pass Details

Date: 18 September 2020
Orbit: 957 x 1002 km, 82.9° (Epoch: 23 October)

Event Time Altitude Azimuth Distance (km) Brightness Sun altitude
Rises 18:54:06 0° 177° (S) 3,712 6.8 -15.5°
Reaches altitude 10° 18:56:38 10° 175° (S) 2,766 6.1 -15.9°
Maximum altitude 19:02:55 67° 94° (E) 1,082 4.0 -16.9°
Drops below altitude 10° 19:09:13 10° 14° (NNE) 2,770 6.5 -17.8°
Sets 19:11:45 0° 12° (NNE) 3,718 7.2 -18.2°
